Wind_Speed
46 47 47 47 46 46 46 46 46 45 44 44 44 44 45 45 46 46 46 46 46 46 47 47 48 48 48 48 48 47 47 47 47 46 45 45 45 44
46 47 46 46 47 46 46 46 47 47 45 44 44 44 45 45 46 47 47 47 48 48 48 47 48 48 48 47 47 47 46 46 46 45 44 45 45 45
47 47 47 46 46 46 46 47 47 47 46 45 45 45 46 46 46 47 47 47 48 48 48 47 47 47 47 47 46 46 45 45 45 45 44 44 43 44
48 48 48 47 47 47 47 48 47 47 47 46 46 46 46 46 46 46 46 47 47 47 47 47 47 47 47 47 46 46 45 45 45 44 44 44 43 43
50 50 50 49 48 48 48 48 48 48 48 48 47 47 46 46 47 47 47 48 48 48 48 47 47 47 47 47 46 46 45 45 44 44 44 44 44 44
49 50 50 50 50 49 50 49 49 49 49 49 48 47 47 47 48 48 48 48 48 49 48 47 46 46 46 45 45 45 45 44 43 43 43 44 44 44
49 49 50 50 50 51 51 51 50 50 50 50 49 48 47 48 48 48 48 48 48 48 48 47 46 45 45 45 44 44 43 43 42 42 43 44 45 44
48 49 50 49 49 50 50 50 50 50 50 50 49 48 48 48 48 48 48 48 47 46 46 45 46 45 45 44 44 43 42 42 42 42 43 44 44 44
46 47 47 48 48 49 49 50 49 49 49 48 49 48 48 48 48 49 49 48 47 46 45 45 45 44 44 43 43 42 42 41 41 42 43 44 44 45
46 45 46 46 46 47 46 46 47 47 48 48 47 47 47 47 48 48 48 47 47 46 45 44 43 43 42 42 42 42 42 42 42 42 43 43 44 45
45 46 45 45 46 46 45 45 46 46 46 46 45 45 46 46 47 47 47 47 46 45 45 44 43 42 42 42 42 42 41 41 42 42 43 43 43 44
44 44 45 46 45 45 45 46 46 47 47 46 45 45 45 45 45 45 45 46 45 44 44 44 43 42 41 41 41 41 41 40 41 41 42 42 42 42
42 42 43 45 45 45 45 45 46 46 46 45 44 44 45 44 44 44 44 44 44 43 43 43 42 42 41 40 39 40 39 39 40 40 41 41 41 40
41 42 43 43 43 43 44 44 43 43 43 42 42 42 43 43 43 43 44 43 43 43 42 42 41 40 41 39 38 38 39 39 38 38 39 39 39 39
41 42 42 42 42 42 42 42 42 40 40 40 40 41 42 42 41 41 42 43 43 42 41 41 40 40 40 39 38 37 37 37 37 37 38 37 37 37
42 42 42 42 42 42 41 41 40 40 39 40 39 40 40 40 40 40 41 42 41 41 40 40 39 39 38 37 37 37 37 36 36 35 35 36 35 34
41 40 41 41 41 41 41 40 39 39 40 39 38 38 38 39 39 40 40 40 40 40 39 38 37 36 36 36 35 35 35 35 35 35 34 34 33 33
39 39 39 39 40 40 39 39 38 39 39 38 38 38 38 38 38 39 40 40 40 39 38 37 36 36 35 35 35 35 34 34 34 33 33 32 32 32
38 38 38 37 38 38 38 38 38 38 38 38 38 38 37 38 38 39 40 40 39 38 37 36 36 35 34 33 34 34 33 33 33 33 32 32 30 29
35 36 36 36 36 36 36 36 36 36 36 36 37 37 37 38 38 39 38 38 37 36 36 35 35 34 32 32 32 33 32 31 31 30 30 29 28 27
32 32 33 33 33 33 34 34 34 34 34 34 35 35 36 37 37 37 36 35 35 35 34 33 32 32 31 31 31 31 31 30 29 27 25 25 25 24
29 29 30 30 31 31 31 31 31 31 32 32 33 34 35 35 35 34 33 33 33 33 32 31 30 29 29 29 29 29 28 27 27 25 23 22 21 21
26 26 26 27 27 28 28 28 28 29 30 30 30 31 31 31 31 30 30 30 30 29 29 28 27 26 26 26 26 26 25 25 24 23 22 21 21 20
Wind_Direction
268 269 270 270 270 271 273 274 275 275 275 277 278 278 278 278 279 278 278 279 279 280 280 281 281 281 281 282 282 282 282 281 281 281 281 280 279 278
267 268 269 270 270 271 272 273 275 276 276 277 277 278 278 278 278 278 279 279 280 281 281 280 281 281 282 282 282 282 282 281 280 280 280 279 278 278
267 267 269 269 270 271 272 273 275 276 276 276 277 278 279 280 279 279 279 280 281 281 280 280 281 281 281 282 282 283 282 282 280 279 279 279 279 280
268 268 269 270 269 270 271 272 274 275 276 276 277 278 279 279 279 279 279 281 281 282 282 281 281 281 282 282 282 282 282 281 280 278 278 278 279 279
269 269 269 269 269 270 271 272 274 275 276 277 278 278 278 279 279 279 280 281 281 282 282 282 282 281 282 281 282 282 282 281 280 278 277 277 278 280
268 269 270 270 270 271 272 272 274 275 276 277 277 278 278 278 279 279 280 281 281 281 281 283 283 282 282 281 281 281 281 281 280 279 277 278 279 281
268 269 270 271 272 273 273 273 275 276 277 277 277 277 278 278 279 280 280 280 282 282 282 282 281 282 282 281 280 280 280 280 279 279 279 279 281 281
269 270 272 271 272 273 272 273 275 276 276 276 276 276 277 278 278 279 280 280 282 282 282 281 280 280 280 279 279 280 280 280 279 279 280 280 280 281
271 272 272 271 271 271 271 272 274 275 276 276 275 276 277 278 278 278 280 281 283 282 281 281 281 281 278 278 279 279 280 280 281 280 281 281 281 281
272 272 272 272 272 271 272 273 274 275 276 276 276 276 277 277 277 278 279 280 281 281 281 281 281 281 278 278 279 280 281 280 280 281 282 282 281 280
272 273 273 272 271 271 272 274 275 276 276 275 275 276 277 277 277 278 279 280 280 280 281 281 280 280 278 278 279 280 280 281 282 283 283 283 282 280
272 273 273 274 274 273 274 275 276 276 276 276 276 277 277 278 278 279 280 281 279 279 281 281 280 279 277 277 278 278 281 282 282 283 283 284 283 282
270 271 272 274 274 275 276 276 276 275 274 274 275 276 277 277 278 280 281 281 280 280 281 281 280 278 277 277 276 278 281 283 283 284 283 284 283 282
270 271 273 273 274 275 276 276 275 274 273 273 274 275 276 277 278 278 278 280 280 280 281 280 279 278 279 277 277 278 281 284 285 284 285 284 283 282
272 273 274 273 273 274 275 276 275 274 273 273 274 276 276 277 277 276 277 279 278 279 279 279 279 278 279 279 279 280 281 284 284 284 284 283 283 282
274 275 274 272 273 274 274 275 275 274 273 273 275 276 277 277 277 276 276 277 278 279 279 279 279 279 279 278 279 280 281 283 284 284 283 283 284 284
274 276 275 273 273 273 273 273 273 272 273 274 274 276 277 276 275 275 275 276 278 278 279 279 279 278 277 276 278 280 282 283 284 284 283 284 284 283
275 276 276 274 274 274 274 274 273 272 273 274 275 276 276 276 275 274 275 275 276 278 278 278 277 276 274 275 277 279 280 282 284 285 284 283 282 281
276 275 275 275 275 276 275 274 273 273 274 274 275 276 276 276 276 276 276 276 276 277 277 277 276 275 273 274 276 278 280 281 283 284 283 282 281 280
276 275 275 275 276 276 275 274 274 274 274 275 276 276 276 276 277 277 277 277 277 278 277 276 276 274 272 274 276 278 281 283 283 283 283 281 279 279
277 276 275 275 276 275 275 275 274 275 276 277 277 276 277 277 277 277 277 277 277 278 277 276 275 273 273 275 276 277 279 281 282 282 282 279 277 276
280 278 277 277 277 277 277 277 277 277 279 279 278 278 279 279 278 278 276 277 277 277 277 275 274 273 274 276 278 279 280 280 280 279 278 278 277 275
282 281 280 280 280 279 279 278 278 279 279 280 280 281 282 281 279 278 277 277 277 276 274 274 273 274 275 276 278 280 280 280 279 277 277 279 280 277
Height
5684 5684 5683 5683 5683 5683 5682 5682 5683 5683 5684 5683 5681 5679 5677 5676 5675 5674 5673 5672 5670 5669 5668 5667 5665 5664 5663 5661 5660 5659 5657 5656 5655 5654 5652 5651 5650 5650
5672 5671 5671 5671 5670 5670 5670 5670 5669 5670 5670 5670 5669 5667 5665 5664 5662 5661 5660 5659 5658 5656 5655 5654 5652 5651 5649 5648 5647 5646 5644 5643 5642 5641 5640 5639 5638 5637
5659 5659 5659 5658 5658 5658 5658 5657 5657 5657 5657 5657 5655 5654 5652 5651 5650 5648 5647 5646 5645 5643 5642 5641 5639 5638 5636 5635 5634 5632 5631 5630 5629 5628 5627 5627 5625 5624
5646 5646 5646 5646 5646 5646 5645 5645 5645 5644 5644 5644 5643 5641 5640 5638 5637 5636 5635 5634 5632 5631 5629 5628 5626 5625 5624 5622 5621 5620 5618 5617 5616 5615 5615 5615 5613 5612
5633 5633 5633 5632 5633 5632 5632 5632 5631 5631 5630 5630 5630 5629 5627 5625 5624 5623 5622 5621 5619 5618 5616 5615 5613 5612 5610 5609 5608 5607 5606 5605 5604 5603 5602 5601 5601 5599
5619 5619 5619 5619 5619 5619 5619 5618 5618 5617 5617 5616 5616 5615 5614 5613 5611 5611 5610 5608 5607 5605 5603 5602 5600 5598 5597 5596 5595 5594 5593 5592 5591 5590 5589 5589 5588 5586
5606 5606 5605 5605 5605 5605 5605 5605 5604 5604 5603 5602 5602 5602 5601 5600 5599 5597 5597 5596 5594 5592 5590 5588 5587 5586 5585 5583 5582 5581 5580 5579 5578 5577 5576 5575 5574 5573
5593 5592 5592 5592 5591 5591 5591 5590 5590 5590 5589 5589 5589 5588 5588 5586 5585 5584 5583 5582 5582 5580 5577 5575 5573 5573 5572 5570 5569 5568 5568 5567 5566 5565 5563 5562 5561 5560
5579 5579 5579 5579 5578 5578 5577 5577 5576 5575 5575 5575 5575 5574 5574 5573 5572 5571 5569 5568 5567 5566 5564 5563 5561 5560 5559 5557 5556 5556 5555 5554 5553 5552 5550 5549 5547 5546
5566 5567 5567 5566 5565 5565 5564 5564 5563 5563 5562 5561 5561 5561 5560 5559 5558 5557 5555 5555 5554 5552 5550 5550 5549 5547 5546 5544 5544 5543 5542 5541 5540 5539 5537 5536 5534 5532
5554 5554 5554 5554 5553 5552 5552 5552 5551 5550 5548 5547 5547 5547 5546 5545 5544 5543 5542 5541 5541 5540 5538 5537 5537 5535 5534 5533 5532 5530 5530 5529 5528 5526 5524 5522 5520 5518
5542 5541 5541 5541 5540 5539 5538 5538 5538 5537 5536 5535 5534 5533 5532 5531 5530 5529 5529 5528 5527 5527 5526 5524 5524 5522 5523 5522 5520 5519 5517 5516 5515 5513 5511 5509 5507 5505
5530 5529 5529 5527 5526 5526 5525 5525 5525 5523 5522 5522 5521 5521 5520 5520 5518 5517 5516 5515 5515 5514 5514 5512 5511 5510 5509 5510 5509 5507 5506 5504 5502 5500 5498 5496 5494 5492
5518 5518 5516 5515 5514 5513 5513 5512 5511 5510 5510 5509 5509 5509 5508 5507 5506 5505 5504 5503 5502 5501 5500 5499 5499 5498 5497 5497 5497 5496 5495 5492 5490 5489 5487 5485 5482 5480
5506 5505 5504 5503 5502 5501 5500 5499 5498 5498 5497 5497 5497 5497 5496 5495 5493 5493 5491 5490 5489 5489 5488 5487 5487 5486 5485 5485 5485 5485 5484 5482 5479 5477 5475 5473 5471 5470
5493 5493 5492 5491 5490 5489 5488 5487 5486 5486 5486 5486 5485 5485 5484 5483 5482 5481 5480 5479 5478 5478 5477 5476 5475 5475 5474 5474 5473 5473 5472 5470 5468 5466 5464 5462 5461 5459
5481 5480 5479 5478 5477 5477 5476 5475 5475 5474 5474 5474 5474 5473 5472 5471 5471 5470 5469 5468 5467 5467 5466 5466 5464 5463 5463 5463 5463 5462 5461 5459 5458 5456 5454 5453 5451 5450
5469 5468 5468 5467 5466 5465 5465 5464 5463 5463 5463 5462 5462 5462 5461 5460 5460 5458 5457 5457 5456 5456 5455 5455 5454 5453 5453 5453 5453 5452 5451 5449 5448 5446 5444 5443 5442 5441
5458 5457 5456 5456 5455 5454 5453 5453 5453 5452 5452 5451 5451 5451 5450 5449 5448 5448 5447 5446 5445 5445 5444 5444 5443 5443 5443 5444 5443 5442 5441 5440 5438 5436 5435 5434 5433 5432
5446 5445 5445 5444 5443 5443 5442 5442 5441 5441 5440 5440 5440 5439 5439 5438 5437 5437 5436 5435 5435 5434 5434 5433 5433 5433 5433 5434 5433 5433 5431 5430 5429 5428 5427 5425 5424 5424
5436 5435 5434 5434 5433 5432 5432 5431 5431 5430 5430 5429 5429 5428 5428 5427 5426 5426 5425 5424 5424 5424 5424 5424 5424 5424 5423 5423 5424 5424 5423 5422 5420 5420 5419 5418 5417 5417
5427 5426 5425 5424 5423 5423 5422 5422 5421 5421 5420 5419 5419 5418 5417 5416 5416 5415 5415 5414 5414 5414 5414 5414 5414 5414 5415 5415 5415 5415 5415 5414 5413 5412 5412 5412 5411 5411
5419 5418 5417 5416 5415 5414 5413 5413 5412 5411 5410 5410 5409 5408 5407 5407 5406 5406 5405 5405 5405 5405 5405 5406 5406 5406 5406 5407 5407 5407 5407 5406 5406 5405 5405 5405 5405 5404